Location: Boone Canyon
(38.3180°N, 119.2504°W)
Time: 17:49:07
(UTC+00:00)

Cosmos 1763 Rocket - Pass Details

Date: 18 September 2020
Orbit: 733 x 779 km, 74.0° (Epoch: 19 October)

Event Time Altitude Azimuth Distance (km) Brightness Sun altitude
Exits shadow 12:57:31 - 215° (SW) 3,175 6.3 -9.5°
Reaches altitude 10° 12:59:48 10° 221° (SW) 2,323 5.5 -9.0°
Maximum altitude 13:04:50 44° 293° (WNW) 1,073 3.9 -8.0°
Drops below altitude 10° 13:09:54 10° 5° (N) 2,335 6.2 -7.1°
Sets 13:12:25 0° 12° (NNE) 3,264 7.0 -6.6°
